[[[{"header":{"parameterUnit":"kt","parameterCategory":2,"dx":1,"dy":1,"la1":30.253999710083008,"la2":30.299108505249023,"lo1":-89.0895004272461,"lo2":-89.04439544677734,"nx":28,"ny":28,"refTime":"2022-11-01T21:00:00:Z","depth":0,"parameterNumber":1,"parameterNumberName":"U-component_of_WINDS"},"data":[-2.797,-2.8038,-2.801,-2.8075,-2.806,-2.81,-2.8105,-2.8109,-2.8104,-2.8149,-2.817,-2.8148,-2.8132,-2.8151,-2.8172,-2.8162,-2.8175,-2.822,-2.8201,-2.8022,-2.7995,-2.797,-2.7952,-2.8222,-2.8222,-2.8391,-2.8393,-2.8394,-2.7843,-2.7829,-2.7854,-2.786,-2.7882,-2.782,-2.782,-2.7842,-2.788,-2.7875,-2.7893,-2.793,-2.7956,-2.7924,-2.7944,-2.7976,-2.7949,-2.7984,-2.7983,-2.7982,-2.7788,-2.777,-2.8006,-2.8006,-2.8005,-2.8005,-2.8005,-2.8005,-2.7604,-2.7646,-2.7632,-2.7659,-2.7654,-2.7658,-2.7693,-2.7664,-2.7689,-2.7705,-2.7665,-2.7707,-2.7697,-2.7706,-2.7702,-2.7735,-2.7691,-2.772,-2.7728,-2.7737,-2.7752,-2.7517,-2.7736,-2.7735,-2.7734,-2.7734,-2.7733,0,-2.7421,-2.7394,-2.7416,-2.743,-2.7448,-2.7455,-2.7458,-2.7478,-2.741,-2.7434,-2.7465,-2.7479,-2.7505,-2.7533,-2.7544,-2.7533,-2.7474,-2.7463,-2.7484,-2.7506,-2.7525,-2.7519,-2.7208,-2.7458,-2.7456,-2.7454,-2.7452,-2.7451,-2.7181,-2.7232,-2.7202,-2.7222,-2.7215,-2.7248,-2.7261,-2.7196,-2.7214,-2.7207,-2.7247,-2.7273,-2.729,-2.7346,-2.7313,-2.7333,-2.7304,-2.7404,-2.7307,-2.7326,-2.7309,-2.7308,-2.7314,-2.7425,-2.7428,-2.7431,-2.7433,0,-2.7049,-2.7,-2.7069,-2.7034,-2.7027,-2.7085,-2.7055,-2.7094,-2.7061,-2.7111,-2.7118,-2.7068,-2.71,-2.705,-2.7076,-2.705,-2.7147,-2.7117,-2.715,-2.7143,-2.7229,-2.7223,-2.751,-2.7546,-2.7262,-2.7265,-2.7267,0,-2.6826,-2.6895,-2.6818,-2.6861,-2.6937,-2.6869,-2.6946,-2.6925,-2.6914,-2.6952,-2.6874,-2.6912,-2.6841,-2.6872,-2.6832,-2.6902,-2.6906,-2.689,-2.688,-2.6899,-2.6902,-2.691,-2.6899,-2.6849,-2.6848,-2.6847,-2.6845,0,-2.6627,-2.6665,-2.6734,-2.6736,-2.6705,-2.6739,-2.6728,-2.6714,-2.6728,-2.6737,-2.6745,-2.6761,-2.6771,-2.6785,-2.6734,-2.6671,-2.6817,-2.6719,-2.6801,-2.6803,-2.6839,-2.6838,-2.7103,-2.6844,-2.6843,-2.6843,-2.6842,0,-2.6439,-2.6449,-2.6556,-2.6528,-2.6541,-2.6587,-2.6597,-2.6624,-2.6615,-2.6592,-2.6599,-2.6542,-2.6596,-2.6504,-2.6579,-2.6511,-2.6525,-2.6514,-2.6519,-2.6524,-2.6422,-2.6582,-2.6837,-2.6863,-2.6525,-2.6522,-2.652,0,-2.6226,-2.632,-2.6262,-2.6365,-2.6402,-2.6312,-2.6361,-2.6355,-2.6328,-2.6356,-2.6326,-2.6359,-2.6278,-2.6282,-2.6325,-2.6297,-2.6385,-2.6283,-2.6328,-2.633,-2.6336,-2.6568,-2.6621,-2.6786,-2.6485,-2.6489,-2.6491,0,-2.6055,-2.6015,-2.6038,-2.6037,-2.6016,-2.6046,-2.6102,-2.6118,-2.614,-2.614,-2.6187,-2.6229,-2.6172,-2.6178,-2.6132,-2.6181,-2.6323,-2.6112,-2.6111,-2.6154,-2.6462,-2.6512,-2.654,-2.6282,-2.6287,-2.629,-2.6464,0,-2.5788,-2.5828,-2.5885,-2.5884,-2.5898,-2.5958,-2.5903,-2.5925,-2.588,-2.585,-2.5917,-2.5898,-2.5916,-2.5932,-2.5889,-2.6014,-2.5986,-2.5923,-2.5832,-2.5984,-2.604,-2.6063,-2.5752,-2.5749,-2.5747,-2.5745,0,0,-2.5599,-2.5653,-2.5588,-2.5639,-2.5647,-2.5553,-2.5623,-2.562,-2.5617,-2.5625,-2.5572,-2.5631,-2.5619,-2.5706,-2.5749,-2.5755,-2.5773,-2.5722,-2.5911,-2.593,-2.5947,-2.6008,-2.6032,-2.574,-2.5739,-2.5738,-2.5737,0,-2.549,-2.5476,-2.5545,-2.5538,-2.5527,-2.5491,-2.5508,-2.548,-2.5464,-2.5527,-2.545,-2.5483,-2.5531,-2.5529,-2.5534,-2.5709,-2.565,-2.5718,-2.5832,-2.5887,-2.5909,-2.5929,-2.5994,-2.6017,-2.5731,-2.5732,-2.5732,0,-2.5313,-2.5291,-2.5318,-2.533,-2.5322,-2.5361,-2.525,-2.5296,-2.5325,-2.522,-2.5285,-2.5267,-2.5259,-2.5347,-2.5384,-2.5338,-2.5542,-2.5467,-2.5481,-2.5485,-2.5536,-2.5563,-2.5587,-2.5274,-2.5272,-2.5271,0,0,-2.5227,-2.5262,-2.5219,-2.5303,-2.5303,-2.5251,-2.5266,-2.5222,-2.5215,-2.5213,-2.5189,-2.5186,-2.5213,-2.5233,-2.5255,-2.5359,-2.5354,-2.5413,-2.5434,-2.5452,-2.5466,-2.5521,-2.5548,-2.5266,-2.5266,-2.5266,0,0,-2.5186,-2.5139,-2.5094,-2.5184,-2.518,-2.5143,-2.5197,-2.5141,-2.5156,-2.5143,-2.5072,-2.5068,-2.5149,-2.5135,-2.5072,-2.5222,-2.5132,-2.5146,-2.5229,-2.5255,-2.5276,-2.5279,-2.4957,0,0,0,0,0,-2.5047,-2.5144,-2.5104,-2.511,-2.5126,-2.5165,-2.5167,-2.511,-2.5047,-2.5091,-2.5063,-2.4997,-2.5086,-2.5029,-2.5038,-2.5109,-2.5199,-2.5211,-2.5222,-2.5353,-2.5382,-2.5406,0,0,0,0,0,0,-2.5049,-2.5057,-2.5101,-2.507,-2.5072,-2.5161,-2.5043,-2.503,-2.5041,-2.5028,-2.5005,-2.4996,-2.4949,-2.5021,-2.5029,-2.5099,-2.4954,-2.5204,-2.5214,-2.5223,-2.5363,-2.5386,-2.5406,0,0,0,0,0,-2.505,-2.5057,-2.5096,-2.5068,-2.507,-2.5018,-2.5039,-2.5027,-2.5035,-2.499,-2.498,-2.4991,-2.4953,-2.4956,-2.5026,-2.5096,-2.4948,-2.4952,-2.5211,-2.5218,-2.5226,-2.5374,0,0,0,0,0,0,-2.5051,-2.5047,-2.5095,-2.5094,-2.5026,-2.5011,-2.5007,-2.5025,-2.4995,-2.4986,-2.4972,-2.4962,-2.4956,-2.4958,-2.4961,-2.5099,-2.4943,-2.4947,-2.4949,-2.5217,-2.5223,-2.5228,0,0,0,0,0,0,-2.5043,-2.5046,-2.5095,-2.5046,-2.5038,-2.5006,-2.5002,-2.5053,-2.4996,-2.4978,-2.4969,-2.4968,-2.4952,-2.496,-2.4962,-2.5044,-2.4939,-2.4942,-2.4945,-2.4946,-2.5222,-2.5226,0,0,0,0,0,0,-2.5043,-2.5046,-2.5045,-2.504,-2.5033,-2.5014,-2.505,-2.5069,-2.4953,-2.4981,-2.4941,-2.4935,-2.4957,-2.4957,-2.4964,-2.5045,-2.5044,-2.4939,-2.4941,-2.4943,-2.4944,0,0,0,0,0,0,0,-2.5043,-2.5036,-2.5103,-2.5035,-2.5029,-2.5082,-2.5081,-2.5081,-2.4952,-2.4947,-2.4942,-2.4938,-2.492,-2.4924,-2.4928,-2.5046,0,0,-2.4939,-2.4941,0,0,0,0,0,0,0,0,-2.5034,-2.5036,-2.5103,-2.5103,-2.5103,-2.5082,-2.5081,-2.5081,-2.4951,-2.4947,-2.4943,-2.494,-2.4921,-2.4924,-2.4927,0,0,0,0,0,0,0,0,0,0,0,0,0,0,0,-2.5103,-2.5103,0,-2.5082,-2.5081,-2.5081,-2.495,-2.4947,-2.4944,-2.4941,-2.4922,-2.4925,-2.4927,0,0,0,0,0,0,0,0,0,0,0,0,0,0,0,0,0,0,0,0,0,0,0,0,0,0,0,0,0,0,0,0,0,0,0,0,0,0,0,0,0,0,0,0,0,0,0,0,0,0,0,0,0,0,0,0,0,0,0,0,0,0,0,0,0,0,0,0,0]}],[{"header":{"parameterUnit":"kt","parameterCategory":2,"dx":1,"dy":1,"la1":30.253999710083008,"la2":30.299108505249023,"lo1":-89.0895004272461,"lo2":-89.04439544677734,"nx":28,"ny":28,"refTime":"2022-11-01T21:00:00:Z","depth":0,"parameterNumber":2,"parameterNumberName":"V-component_of_WINDS"},"data":[-4.0098,-4.02,-4.0208,-4.0327,-4.0353,-4.0436,-4.0467,-4.0508,-4.0542,-4.0639,-4.0696,-4.0711,-4.0747,-4.0814,-4.0875,-4.088,-4.0906,-4.0936,-4.0938,-4.0794,-4.0775,-4.0756,-4.0734,-4.0942,-4.0942,-4.1086,-4.1087,-4.1088,-3.9992,-4.002,-4.0085,-4.0154,-4.0209,-4.0184,-4.0235,-4.0283,-4.0356,-4.0399,-4.0455,-4.054,-4.0607,-4.0632,-4.0698,-4.0744,-4.0735,-4.0761,-4.0758,-4.0764,-4.0611,-4.0587,-4.0767,-4.0767,-4.0767,-4.0767,-4.0767,-4.0767,-3.9801,-3.9862,-3.9908,-3.9979,-4.0015,-4.006,-4.0118,-4.0138,-4.02,-4.0271,-4.0266,-4.0348,-4.0391,-4.0472,-4.0501,-4.0564,-4.0536,-4.0566,-4.0574,-4.0582,-4.0591,-4.0384,-4.0575,-4.0574,-4.0574,-4.0573,-4.0573,0,-3.9664,-3.9667,-3.973,-3.9795,-3.9847,-3.9898,-3.9945,-3.9981,-3.9987,-4.0038,-4.0112,-4.0156,-4.0241,-4.0311,-4.0373,-4.0397,-4.0375,-4.0373,-4.0394,-4.0399,-4.0396,-4.04,-4.0151,-4.0368,-4.0366,-4.0365,-4.0364,-4.0363,-3.9474,-3.9543,-3.9595,-3.9638,-3.9666,-3.9735,-3.9778,-3.9777,-3.9822,-3.9879,-3.9932,-4.0002,-4.0058,-4.0174,-4.0194,-4.0257,-4.0247,-4.0329,-4.0257,-4.0258,-4.025,-4.0247,-4.0254,-4.0344,-4.0347,-4.0349,-4.035,0,-3.9366,-3.9378,-3.9488,-3.9531,-3.9544,-3.9616,-3.9653,-3.9712,-3.9724,-3.9807,-3.9826,-3.9845,-3.9917,-3.9924,-4.0006,-4.0008,-4.0125,-4.0113,-4.0111,-4.0109,-4.0184,-4.0178,-4.0425,-4.0458,-4.0241,-4.0243,-4.0245,0,-3.9209,-3.93,-3.9312,-3.9375,-3.9476,-3.9474,-3.9573,-3.9593,-3.963,-3.9696,-3.9672,-3.9734,-3.9733,-3.9795,-3.9797,-3.9893,-3.9909,-3.9916,-3.9915,-3.9919,-3.9919,-3.9943,-3.9934,-3.991,-3.9909,-3.9908,-3.9907,0,-3.904,-3.9153,-3.9255,-3.9283,-3.9338,-3.9386,-3.941,-3.9452,-3.9493,-3.9547,-3.9574,-3.9637,-3.9671,-3.9719,-3.9722,-3.9672,-3.984,-3.9772,-3.9847,-3.9847,-3.9885,-3.9883,-4.0099,-3.9905,-3.9905,-3.9904,-3.9904,0,-3.8915,-3.8972,-3.9119,-3.9164,-3.9194,-3.926,-3.9323,-3.9382,-3.9428,-3.9434,-3.9476,-3.9462,-3.9546,-3.9479,-3.9595,-3.9531,-3.9565,-3.958,-3.9585,-3.9595,-3.952,-3.9642,-3.9846,-3.9868,-3.9601,-3.9598,-3.9596,0,-3.872,-3.8871,-3.887,-3.9009,-3.908,-3.905,-3.9124,-3.9165,-3.918,-3.9241,-3.9255,-3.9324,-3.9276,-3.9298,-3.9355,-3.9373,-3.9457,-3.9361,-3.9448,-3.9452,-3.9439,-3.9626,-3.9656,-3.98,-3.9564,-3.9567,-3.957,0,-3.857,-3.8637,-3.8662,-3.8694,-3.8749,-3.8808,-3.8892,-3.8961,-3.9002,-3.905,-3.9121,-3.9218,-3.9185,-3.9223,-3.9217,-3.9276,-3.94,-3.9233,-3.9234,-3.9264,-3.9548,-3.9576,-3.96,-3.9383,-3.9387,-3.939,-3.9544,0,-3.8381,-3.8458,-3.8525,-3.8596,-3.8642,-3.8729,-3.8738,-3.8785,-3.8776,-3.879,-3.8893,-3.8928,-3.8997,-3.9026,-3.9017,-3.9149,-3.9128,-3.9093,-3.9029,-3.9151,-3.9202,-3.9223,-3.8952,-3.895,-3.8949,-3.8947,0,0,-3.8192,-3.8303,-3.83,-3.8383,-3.8422,-3.8391,-3.8483,-3.8517,-3.8586,-3.8614,-3.8578,-3.872,-3.875,-3.8874,-3.8913,-3.894,-3.8965,-3.8922,-3.9092,-3.9108,-3.9123,-3.9178,-3.9199,-3.8944,-3.8944,-3.8943,-3.8943,0,-3.8126,-3.8159,-3.8251,-3.8287,-3.8339,-3.8349,-3.8371,-3.8418,-3.8431,-3.8532,-3.8504,-3.8566,-3.868,-3.8716,-3.8749,-3.8907,-3.8882,-3.8926,-3.9009,-3.9076,-3.9095,-3.9111,-3.9168,-3.9188,-3.8939,-3.8939,-3.8939,0,-3.7981,-3.8016,-3.8061,-3.8149,-3.8183,-3.8256,-3.8192,-3.8272,-3.8325,-3.8286,-3.8387,-3.8408,-3.8456,-3.8572,-3.8625,-3.8594,-3.8807,-3.874,-3.875,-3.8757,-3.8822,-3.8844,-3.8863,-3.8607,-3.8606,-3.8605,0,0,-3.7922,-3.7994,-3.8031,-3.8136,-3.8159,-3.8176,-3.8215,-3.8211,-3.8256,-3.8274,-3.8301,-3.8345,-3.841,-3.8454,-3.8516,-3.8642,-3.8652,-3.8699,-3.8715,-3.8728,-3.8741,-3.8809,-3.8831,-3.86,-3.86,-3.86,0,0,-3.7894,-3.7942,-3.7926,-3.8049,-3.8093,-3.8136,-3.82,-3.818,-3.8237,-3.8228,-3.8223,-3.8235,-3.8343,-3.8365,-3.8304,-3.8493,-3.843,-3.8444,-3.8476,-3.8496,-3.8511,-3.8504,-3.8242,0,0,0,0,0,-3.7832,-3.7936,-3.7921,-3.7943,-3.8054,-3.8145,-3.8159,-3.8158,-3.8113,-3.8164,-3.8182,-3.8153,-3.8331,-3.8277,-3.8298,-3.8366,-3.8543,-3.8553,-3.8562,-3.8633,-3.8654,-3.8671,0,0,0,0,0,0,-3.7841,-3.7868,-3.7918,-3.7966,-3.799,-3.8141,-3.8065,-3.8068,-3.8108,-3.8101,-3.8151,-3.8155,-3.8155,-3.8266,-3.8285,-3.835,-3.8236,-3.8547,-3.8555,-3.8563,-3.864,-3.8657,-3.8671,0,0,0,0,0,-3.7848,-3.7869,-3.8048,-3.7964,-3.7986,-3.801,-3.8061,-3.8063,-3.8094,-3.8124,-3.8127,-3.809,-3.8157,-3.8173,-3.8277,-3.8341,-3.8223,-3.823,-3.8552,-3.8559,-3.8565,-3.8648,0,0,0,0,0,0,-3.7853,-3.7871,-3.8052,-3.8059,-3.7925,-3.8001,-3.8013,-3.8059,-3.8114,-3.8118,-3.8062,-3.8056,-3.816,-3.8171,-3.8184,-3.8339,-3.8212,-3.8219,-3.8224,-3.8557,-3.8563,-3.8568,0,0,0,0,0,0,-3.7859,-3.7877,-3.8055,-3.8006,-3.8007,-3.7993,-3.8004,-3.8092,-3.8115,-3.8049,-3.8045,-3.8059,-3.814,-3.8171,-3.818,-3.8318,-3.8203,-3.821,-3.8215,-3.8218,-3.8562,-3.8566,0,0,0,0,0,0,-3.7867,-3.7882,-3.8004,-3.8005,-3.8006,-3.8078,-3.8071,-3.8184,-3.8074,-3.8047,-3.8064,-3.8059,-3.8141,-3.815,-3.8178,-3.8312,-3.8316,-3.8204,-3.8208,-3.8212,-3.8214,0,0,0,0,0,0,0,-3.7873,-3.7772,-3.8014,-3.8004,-3.8004,-3.8119,-3.812,-3.8122,-3.8073,-3.8069,-3.8065,-3.8061,-3.8164,-3.8171,-3.8179,-3.8307,0,0,-3.8203,-3.8206,0,0,0,0,0,0,0,0,-3.7766,-3.7771,-3.8014,-3.8015,-3.8017,-3.8119,-3.812,-3.8122,-3.8072,-3.8069,-3.8066,-3.8063,-3.8166,-3.8172,-3.8178,0,0,0,0,0,0,0,0,0,0,0,0,0,0,0,-3.8014,-3.8015,0,-3.8119,-3.812,-3.8121,-3.8072,-3.8069,-3.8066,-3.8064,-3.8167,-3.8172,-3.8178,0,0,0,0,0,0,0,0,0,0,0,0,0,0,0,0,0,0,0,0,0,0,0,0,0,0,0,0,0,0,0,0,0,0,0,0,0,0,0,0,0,0,0,0,0,0,0,0,0,0,0,0,0,0,0,0,0,0,0,0,0,0,0,0,0,0,0,0,0]}]]]